Temp_Advection
nan nan nan nan nan nan nan nan nan nan nan nan nan nan nan nan nan nan nan nan nan nan nan nan nan nan nan nan nan nan nan nan nan nan nan nan nan nan nan nan nan nan nan nan nan nan nan nan nan nan nan nan nan nan nan nan nan nan nan nan nan nan nan nan nan nan nan nan nan
nan 1 1 1 0 1 0 0 0 0 0 0 0 0 0 0 0 0 0 0 0 0 0 0 0 0 0 0 0 0 -0 -0 -0 -0 -0 -0 -0 0 0 0 0 0 0 0 0 0 -0 0 0 0 -0 -0 0 0 -0 -0 0 0 -0 -0 -0 -0 -0 -0 -0 -0 -0 -0 nan
nan 1 1 0 0 0 0 0 0 0 0 0 0 0 0 0 0 0 0 0 0 0 0 0 0 0 0 -0 -0 -0 -0 -0 -0 -0 -0 -0 0 0 0 0 0 0 0 0 0 0 0 0 0 0 0 0 0 0 0 -0 0 0 -0 -0 -0 -0 -0 -0 -0 -0 -0 -0 nan
nan 1 1 0 0 0 0 0 0 0 0 0 0 0 0 0 0 0 0 0 0 0 0 0 0 0 0 0 -0 -0 -0 -0 -0 -0 0 0 0 0 0 0 0 0 0 0 0 0 0 0 0 0 0 0 0 0 0 0 -0 0 0 -0 -0 -0 -0 -0 -0 -0 -0 -0 nan
nan 1 0 0 0 0 0 0 0 0 0 0 0 0 0 0 0 0 0 0 0 0 0 0 0 0 0 -0 -0 -0 -0 -0 -0 -0 0 0 0 0 0 0 0 0 0 0 0 0 0 0 0 0 0 0 0 0 0 0 0 -0 0 0 -0 -0 -0 -0 -0 0 0 0 nan
nan 0 0 0 0 0 0 0 0 -0 -0 0 0 0 0 0 0 0 0 0 0 0 0 0 0 0 0 -0 -0 -0 -0 -0 -0 -0 0 0 0 0 0 0 0 0 0 0 0 0 0 0 0 0 0 0 0 0 0 0 0 -0 0 0 0 0 0 0 0 0 0 0 nan
nan 0 0 0 0 0 0 0 -0 -0 0 0 0 0 0 0 0 0 0 0 0 0 0 0 0 0 0 -0 -0 -0 -0 -0 -0 0 0 0 0 0 0 0 0 0 0 0 0 0 0 0 0 0 0 0 0 0 0 0 -0 -0 -0 0 0 0 0 0 0 0 0 0 nan
nan 0 0 0 0 0 0 0 -0 0 0 0 0 0 0 0 0 0 0 0 0 0 0 0 0 0 0 -0 -0 -0 -0 0 0 0 0 0 0 0 0 0 0 0 0 0 0 0 0 0 0 0 0 0 0 0 0 0 0 -0 -0 -0 0 0 0 0 0 0 0 0 nan
nan 0 0 0 0 0 0 0 0 0 0 0 0 0 0 1 1 0 0 0 0 0 0 0 0 -0 -0 -0 -0 -0 -0 0 0 0 0 0 0 0 0 0 1 1 0 0 0 0 0 0 0 0 0 0 0 0 0 -0 0 -0 -0 -0 0 0 0 0 0 0 0 0 nan
nan 0 0 0 0 0 0 0 0 0 0 1 1 1 1 1 1 0 0 0 0 0 0 0 0 -0 -0 -0 -0 -0 0 0 0 0 0 0 0 0 0 0 0 1 1 0 0 0 0 0 0 0 0 0 0 0 -0 -0 -0 0 0 -0 -0 0 0 0 0 0 0 0 nan
nan 0 0 0 0 0 0 0 0 0 0 1 1 1 1 1 0 0 0 0 0 0 0 0 0 -0 -0 -0 -0 0 0 0 0 0 0 0 0 0 0 0 0 0 0 0 0 0 0 0 0 0 0 0 0 0 0 -0 -0 -0 0 0 -0 0 0 0 1 0 0 0 nan
nan 0 0 0 0 0 0 0 0 0 1 1 1 1 1 1 0 0 0 0 0 0 0 -0 -0 -0 -0 -0 -0 -0 0 0 0 -0 0 0 0 0 0 0 0 0 0 0 0 0 0 -0 -0 -0 0 0 0 0 0 0 -0 -0 0 0 0 -0 0 0 1 1 0 0 nan
nan 0 0 0 0 0 0 0 0 0 1 1 1 1 0 0 0 0 0 0 0 0 -0 -0 -0 -0 -0 -0 -0 -0 0 0 0 0 0 0 0 0 0 0 0 0 0 0 0 0 0 -0 -0 -0 -0 0 0 0 0 0 -0 -0 -0 -0 0 0 0 0 0 0 0 0 nan
nan 1 0 0 0 0 0 0 0 1 1 1 1 0 0 0 0 0 0 0 0 0 -0 -0 -0 -0 -0 -0 0 -0 0 0 0 0 0 0 0 0 0 0 0 0 0 0 0 0 0 -0 -0 -0 -0 -0 -0 0 0 0 0 -0 -0 -0 -0 -0 -0 0 0 0 0 0 nan
nan 0 0 0 0 0 0 0 0 1 1 1 1 0 0 0 0 0 0 0 -0 -0 -0 -0 -0 -0 -0 -0 0 0 0 0 0 0 0 0 0 0 0 0 0 0 0 0 0 0 0 -0 -0 -0 -0 -0 -0 -0 0 0 0 0 -0 -0 -0 -0 -0 -0 0 0 0 -0 nan
nan 0 0 0 0 0 0 0 1 1 1 1 0 0 0 0 0 0 0 0 -0 -0 -0 -0 -0 -0 -0 -0 -0 0 0 0 0 0 0 0 0 0 0 0 0 0 0 0 0 0 0 0 -0 -0 -0 -0 -0 -0 -0 -0 -0 0 0 -0 -0 -0 -0 -0 0 0 0 0 nan
nan 0 0 0 0 0 0 0 1 1 0 0 0 0 0 0 0 0 0 -0 -0 -0 -0 -0 -0 -0 0 0 0 0 0 0 0 0 0 0 0 0 0 0 0 0 0 0 0 0 0 0 0 -0 -0 -0 -0 -0 0 0 -0 0 0 0 0 0 0 0 0 0 0 0 nan
nan 0 0 0 0 0 0 0 1 0 0 0 0 0 0 0 0 0 0 -0 -0 -0 -0 -0 -0 0 0 0 0 0 0 0 0 0 0 0 0 0 0 0 0 0 0 -0 -0 0 0 0 0 0 0 0 0 0 0 0 0 0 0 0 0 0 0 1 1 1 1 1 nan
nan 0 0 0 0 0 0 0 0 0 0 0 0 0 0 0 0 0 -0 -0 -0 -0 -0 -0 -0 0 0 0 0 0 0 0 0 0 0 0 0 0 0 0 0 0 0 0 0 -0 -0 -0 -0 -0 0 0 0 0 0 0 0 0 0 0 0 0 0 1 1 1 1 1 nan
nan 1 0 0 0 0 0 0 0 0 0 0 0 0 0 0 0 0 -0 -0 -0 -0 -0 -0 0 0 0 0 0 0 0 0 0 0 0 0 0 0 0 0 0 0 0 0 0 0 -0 -0 -0 -0 0 0 0 0 0 0 0 0 0 0 0 0 0 0 1 1 1 1 nan
nan 0 0 0 0 0 0 0 0 0 0 0 0 0 0 0 0 -0 -0 -0 -0 -0 -0 -0 0 0 0 0 0 0 0 0 0 0 0 0 0 0 0 0 0 0 0 0 0 -0 -0 -0 -0 0 0 0 -0 -0 -0 0 -0 -0 -0 -0 0 0 0 0 0 1 1 1 nan
nan 0 0 0 0 0 0 0 0 0 0 0 0 0 0 0 -0 -0 -0 -0 -0 -0 -0 -0 0 0 0 0 0 0 0 0 0 0 0 0 0 0 0 0 0 0 0 0 0 0 -0 0 0 -0 -0 -0 -0 -0 -0 -0 -0 -0 -0 -0 -0 -0 -0 0 0 1 1 1 nan
nan 0 0 0 0 0 0 0 0 0 0 0 0 0 0 0 -0 -0 -0 -0 -0 -0 -0 0 0 0 0 0 0 0 0 0 0 0 0 0 0 0 0 0 0 0 0 0 -0 -0 -0 -0 -0 -0 -0 -0 -0 -0 -0 -0 -1 -1 -1 -1 -1 -1 -0 0 0 0 0 1 nan
nan 0 0 0 0 0 0 0 0 0 0 0 0 0 0 -0 -0 -0 -0 -0 -0 -0 0 0 0 0 0 0 0 0 0 0 0 0 0 0 0 0 0 0 0 0 0 0 0 -0 -0 -0 -0 -0 -0 -0 -1 -1 -1 -1 -1 -1 -1 -1 -1 -1 -1 -0 0 0 0 1 nan
nan 0 0 0 0 1 1 1 0 0 0 0 0 0 -0 -0 -0 -0 -0 -0 0 -0 0 0 0 0 0 0 0 0 0 -0 0 0 0 0 0 0 0 0 0 0 0 0 -0 -0 -0 -0 -0 -0 -0 -0 -0 -0 -0 -0 -0 -0 -1 -1 -1 -1 -1 -1 -0 0 1 1 nan
nan 0 0 1 1 1 1 0 0 0 0 0 0 0 -0 -0 -0 -0 -0 0 0 0 0 0 0 0 0 0 0 0 0 0 0 0 -0 0 0 0 0 0 0 0 0 0 0 0 0 0 0 0 0 -0 -0 -0 -0 -0 -0 0 -0 -0 -0 -1 -1 -1 -1 -0 0 1 nan
nan 0 1 1 1 1 1 0 0 0 0 0 0 -0 -0 -0 -0 -0 -0 0 0 0 0 0 0 0 0 0 0 0 0 0 0 0 -0 -0 0 0 0 0 0 0 0 0 -0 -0 0 0 0 1 1 0 0 -0 -0 -0 -0 0 0 0 0 -0 -0 -1 -1 -1 -0 0 nan
nan 1 1 1 1 1 0 0 0 0 0 0 0 0 -0 -0 -0 -0 -0 0 0 0 0 0 0 0 0 0 0 0 0 0 0 0 0 0 0 -0 0 0 0 0 0 0 -0 -0 0 0 0 0 1 1 0 0 0 -0 -0 0 0 0 0 0 0 -0 -0 -0 -1 -1 nan
nan 1 1 1 1 0 0 0 0 0 0 0 0 -0 -0 -0 -0 -0 -0 0 0 0 0 0 0 0 0 0 0 0 0 0 0 0 0 0 0 0 0 0 -0 0 0 0 -0 -0 0 0 0 0 1 1 1 0 0 0 0 0 0 0 0 1 1 0 0 0 0 -0 nan
nan 1 1 1 0 0 0 0 0 0 0 0 0 -0 -0 -0 -0 -0 -0 0 0 0 0 0 0 0 0 0 0 0 0 0 0 0 0 0 0 0 0 0 0 -0 0 0 -0 -0 -0 0 0 0 0 1 1 0 0 0 0 0 0 0 1 1 1 1 1 1 1 1 nan
nan 1 1 1 0 0 0 0 0 0 0 0 0 -0 -0 -0 -0 0 0 0 0 0 0 0 0 0 0 0 0 0 0 0 0 0 0 0 -0 -0 0 0 0 -0 -0 -0 -0 -0 -0 0 -0 0 0 0 0 0 0 0 0 0 0 0 1 1 1 1 1 1 1 1 nan
nan 1 1 0 0 0 0 0 0 0 0 0 -0 -0 -0 -0 -0 0 0 0 0 0 0 0 0 0 0 0 0 0 0 0 0 0 0 0 -0 -0 -0 -0 0 -0 -0 -0 -0 -0 -0 -0 -0 0 0 0 0 0 0 0 0 0 0 1 1 1 1 1 1 1 1 2 nan
nan 1 1 0 0 0 0 0 0 0 0 0 0 -0 -0 -0 0 0 0 0 0 0 0 0 0 0 0 0 0 0 0 0 0 0 0 0 -0 -0 -0 -0 -0 -0 -0 -0 -0 -0 -0 -0 -0 0 0 0 0 0 0 0 0 0 0 1 1 1 1 1 1 1 1 2 nan
nan 1 0 0 0 0 0 0 0 0 0 0 0 0 -0 -0 0 0 0 0 0 0 0 0 0 0 0 0 0 0 0 0 0 0 0 0 -0 -0 -0 -0 -0 0 -0 -0 -0 -0 -0 -0 -0 -0 0 0 0 0 0 0 0 0 0 0 1 1 1 1 1 1 1 1 nan
nan 0 0 0 0 0 0 0 0 0 0 0 0 -0 -0 -0 0 0 0 0 0 0 0 1 1 0 0 0 0 0 0 0 0 0 0 0 -0 -0 -0 -0 -0 0 0 -0 -0 -0 -0 -0 -0 0 0 0 -0 0 0 0 -0 -0 0 -0 0 0 1 1 1 1 1 1 nan
nan 0 0 0 0 0 0 0 0 0 0 0 0 -0 0 0 0 0 0 0 0 0 0 1 1 1 1 0 0 0 0 0 0 0 0 0 -0 -0 -0 -0 -0 0 0 0 -0 -0 -0 -0 -0 -0 -0 -0 -0 0 0 0 -0 -0 -0 -0 -0 -0 -0 0 0 1 1 1 nan
nan 0 0 0 0 0 0 0 0 0 0 0 0 0 -0 0 0 0 0 0 0 0 0 1 1 1 0 0 0 0 0 0 0 0 0 0 -0 -0 -0 -0 -0 0 0 0 -0 -0 -0 -0 0 -0 -0 -0 -0 -0 -0 -0 -0 -1 -1 -1 -0 -1 -1 -1 -0 0 0 1 nan
nan 0 0 0 0 0 0 0 0 0 0 0 0 0 0 0 0 0 0 0 0 0 0 1 1 1 0 0 0 0 0 0 0 0 0 0 0 -0 -1 -0 -0 -0 0 0 -0 -0 -0 -0 -0 0 0 0 -0 -0 -0 -1 -1 -1 -1 -1 -1 -0 -1 -1 -0 0 0 0 nan
nan 0 0 0 0 0 0 0 0 0 0 0 0 -0 0 0 0 0 1 0 0 0 0 0 0 1 1 0 0 0 0 0 0 0 0 0 0 -0 -0 -1 -0 -0 0 0 -0 -0 -0 -0 -0 0 0 0 0 -0 -0 -1 -1 -1 -1 -1 -1 -1 -1 -1 -1 -0 0 0 nan
nan 0 0 0 0 0 0 0 0 0 0 -0 -0 0 0 0 0 1 1 1 1 0 0 0 0 0 1 0 0 0 0 0 0 0 0 0 0 0 -0 -0 -0 -0 0 0 0 -0 -0 -0 0 0 0 0 0 0 -0 -1 -1 -1 -1 -1 -1 -2 -2 -1 -1 -1 -0 0 nan
nan nan nan nan nan nan nan nan nan nan nan nan nan nan nan nan nan nan nan nan nan nan nan nan nan nan nan nan nan nan nan nan nan nan nan nan nan nan nan nan nan nan nan nan nan nan nan nan nan nan nan nan nan nan nan nan nan nan nan nan nan nan nan nan nan nan nan nan nan
Wind_Speed
30 28 26 25 25 24 23 23 23 22 22 21 20 19 18 17 16 15 14 14 14 14 15 15 16 16 17 18 18 19 20 21 22 23 24 25 26 27 27 28 28 28 28 29 29 29 30 30 30 30 31 31 31 31 32 32 32 32 32 32 32 32 32 31 31 31 31 31 31
29 27 26 25 25 24 24 23 23 22 21 21 20 18 17 16 15 15 15 15 15 15 15 16 16 17 17 18 19 20 21 22 23 24 25 26 27 27 28 28 28 28 29 29 29 29 30 30 31 31 31 31 31 31 32 32 32 31 31 31 31 31 31 31 31 30 30 30 30
28 27 26 26 25 25 24 23 23 22 21 20 19 18 17 16 16 15 15 15 15 16 16 16 17 17 18 19 20 20 21 22 23 25 26 26 27 27 28 28 28 29 29 29 29 30 30 31 31 31 31 31 31 31 31 31 31 31 31 31 31 30 30 30 30 29 29 29 29
27 27 26 26 25 25 24 23 22 22 21 20 19 18 17 17 17 16 16 16 16 16 16 16 17 17 18 19 20 21 22 23 24 25 26 26 27 27 28 28 28 29 29 29 30 30 31 31 31 31 31 31 31 31 31 31 31 31 30 30 30 30 29 29 29 28 28 28 28
27 27 27 26 26 25 24 23 23 22 21 20 19 18 18 18 17 17 16 16 16 16 16 17 17 18 19 19 20 22 23 24 25 26 26 27 27 27 28 28 28 29 29 30 30 30 31 31 31 31 31 31 31 31 31 31 30 30 30 29 29 28 28 28 28 27 27 27 27
28 27 27 27 26 25 25 24 23 22 21 21 20 19 18 18 18 17 17 16 16 17 17 17 18 18 19 20 21 22 23 24 25 26 26 27 27 27 28 28 28 29 29 30 30 31 31 31 31 31 31 31 30 30 30 30 29 29 29 28 28 28 27 27 27 27 27 27 27
28 28 28 27 26 26 25 24 24 23 22 21 20 19 19 18 18 17 17 17 17 17 17 17 18 19 20 20 22 23 24 25 26 26 27 27 27 27 28 28 29 29 30 30 30 31 31 31 31 30 30 30 30 29 29 29 29 28 28 28 27 27 26 26 26 26 26 27 27
29 29 28 27 27 26 25 24 24 23 22 21 20 20 19 18 17 17 17 17 17 17 17 18 19 19 20 21 22 23 24 25 26 26 27 27 27 27 28 28 29 29 30 30 30 30 30 30 30 30 30 29 29 28 28 28 28 28 27 27 27 26 26 26 26 26 26 27 27
29 29 28 27 27 26 25 24 23 23 22 21 20 19 18 18 17 17 17 17 17 17 18 18 19 20 21 22 23 24 25 25 26 26 27 27 27 28 28 28 29 29 30 30 30 30 30 30 29 29 29 28 28 28 27 27 27 27 27 27 26 26 26 26 26 26 27 27 27
29 29 28 27 26 26 25 24 23 22 22 21 20 19 18 17 17 16 17 17 17 18 18 19 20 20 21 23 24 25 25 26 26 26 27 27 27 28 28 29 29 29 29 29 29 29 29 29 28 28 28 27 27 27 27 26 27 27 27 26 26 26 26 26 26 27 27 28 28
29 28 28 27 26 25 24 23 23 22 21 20 19 18 17 17 17 16 17 17 17 18 18 19 20 21 22 23 24 25 26 26 26 26 27 27 27 28 28 29 29 29 29 29 29 28 28 28 28 27 27 27 26 26 26 26 26 27 27 27 27 27 27 27 27 27 28 28 29
29 28 27 26 25 25 24 23 22 22 21 19 19 18 17 17 17 17 17 17 17 18 19 20 21 22 23 24 24 25 26 26 26 26 27 27 27 28 28 28 28 28 28 28 28 27 27 27 27 27 26 26 26 26 26 27 27 27 27 27 27 27 27 27 28 28 28 29 30
28 27 26 26 25 24 23 22 22 21 20 19 18 17 17 17 17 17 17 17 18 18 19 20 21 22 23 24 24 25 25 26 26 26 26 27 27 27 27 27 27 27 27 27 27 26 26 26 26 26 26 26 26 26 26 27 27 28 28 28 28 28 28 28 28 29 29 30 30
28 27 26 25 25 24 23 22 21 20 19 18 18 17 17 17 17 17 17 17 18 19 19 21 22 22 23 24 25 25 25 25 25 26 26 26 26 27 27 27 26 26 26 26 25 25 25 25 26 26 26 26 26 26 27 27 28 28 28 29 29 29 29 29 29 29 30 30 30
27 27 26 25 24 23 22 21 20 19 18 18 17 17 17 16 17 17 17 17 18 19 20 21 22 23 23 24 24 25 25 25 25 25 25 26 26 26 26 26 25 25 25 25 24 24 24 25 25 26 26 27 27 27 27 28 28 29 29 29 29 29 30 30 30 30 30 30 30
27 26 26 25 24 23 22 21 20 19 18 17 17 17 16 16 17 17 17 18 18 19 20 21 22 23 23 24 24 24 24 24 25 25 25 25 25 25 25 25 25 24 24 24 24 24 24 24 25 26 26 27 27 28 28 28 29 29 29 29 30 30 30 30 30 30 30 30 30
27 26 26 25 24 23 22 20 19 18 18 17 17 16 16 16 17 17 17 18 19 19 20 21 22 23 23 24 24 24 24 24 24 24 24 25 25 24 24 24 24 24 24 24 24 24 24 24 25 26 27 27 28 28 28 29 29 29 29 29 30 30 30 30 30 30 30 30 30
27 26 25 24 23 22 21 20 19 18 17 17 16 16 16 16 16 17 17 18 19 19 20 21 22 23 23 23 23 23 24 24 24 24 24 24 24 24 23 23 23 23 23 23 24 24 24 25 25 26 27 27 28 28 29 29 29 29 30 30 30 30 29 30 30 30 30 30 31
27 26 25 24 23 22 21 20 19 18 17 17 16 16 16 16 16 17 18 18 19 20 21 21 22 23 23 23 23 23 23 23 23 23 23 23 23 23 23 23 23 23 23 23 24 24 25 25 26 27 27 28 28 29 29 29 30 30 30 30 30 30 30 30 30 30 30 31 31
27 26 25 24 23 21 20 19 18 17 17 16 16 16 15 16 16 17 18 19 20 20 21 22 22 22 22 22 22 23 23 23 23 23 23 23 23 22 22 22 22 23 23 23 24 25 26 26 27 27 28 28 29 29 29 30 30 30 30 30 30 30 30 30 30 31 31 31 32
27 26 25 23 22 21 20 19 18 17 16 16 15 15 15 16 16 17 18 19 20 21 21 22 22 22 22 22 22 22 22 23 23 22 22 22 22 22 22 22 22 23 23 24 25 25 26 27 27 28 28 29 29 29 30 30 30 31 31 31 31 31 31 31 31 31 32 32 32
27 25 24 23 22 20 19 18 17 16 16 15 15 15 15 16 16 17 18 19 20 21 21 21 22 22 22 22 22 22 22 22 22 22 22 22 22 22 22 22 23 23 24 24 25 26 27 27 28 28 29 29 30 30 30 31 31 32 32 32 32 31 31 31 31 32 32 32 32
26 25 24 22 21 20 19 18 17 16 15 15 14 14 15 16 17 18 19 19 20 21 21 21 21 21 21 22 22 22 22 22 22 22 22 22 22 22 22 22 23 23 24 25 26 27 27 28 28 29 29 30 30 31 31 31 32 32 33 33 33 32 32 32 32 32 32 32 33
26 24 23 22 21 19 18 17 16 15 14 14 14 14 15 16 17 18 19 19 20 20 21 21 21 21 21 21 22 22 22 22 22 21 21 21 21 22 22 22 23 24 25 25 26 27 28 29 29 30 30 31 31 31 32 32 32 33 33 33 33 33 33 33 33 33 33 33 33
25 24 23 21 20 19 18 16 15 14 14 13 14 14 15 16 17 18 19 19 20 20 20 20 21 21 21 21 21 21 22 22 22 22 22 21 22 22 22 23 23 24 25 26 27 27 28 29 29 30 30 31 31 31 32 32 32 33 33 33 34 34 34 34 34 33 33 33 33
25 23 22 21 19 18 16 15 14 13 13 13 14 15 15 16 17 18 19 19 20 20 20 20 20 21 21 21 21 21 21 22 22 22 22 22 22 22 22 23 24 24 25 26 27 28 28 28 29 30 30 31 31 32 32 32 33 33 33 34 34 34 34 35 34 34 34 33 33
24 23 21 20 18 17 15 14 13 13 13 13 14 15 16 17 18 19 19 19 19 20 20 20 20 21 21 21 21 21 21 21 22 22 22 22 23 23 23 23 24 25 26 27 27 28 28 29 29 29 30 31 31 32 32 33 33 33 34 34 34 34 34 34 34 34 34 34 33
23 22 20 19 17 16 14 13 13 12 13 13 14 15 16 17 18 19 19 19 20 20 20 20 20 21 21 21 21 21 21 22 22 22 23 23 23 24 24 24 25 26 26 27 28 28 29 29 29 30 30 31 31 32 32 33 33 34 34 34 34 34 34 34 34 34 34 33 33
22 21 19 18 16 15 14 13 12 12 13 14 15 16 17 18 18 19 19 20 20 20 20 20 21 21 21 21 21 21 22 22 22 22 23 23 24 24 25 25 26 26 27 28 28 29 29 29 30 30 30 31 31 32 33 33 34 34 35 35 34 34 34 33 33 33 33 33 32
21 20 18 17 15 14 13 13 13 13 13 14 15 16 17 18 19 19 19 20 20 20 20 21 21 21 21 21 22 22 22 22 22 23 23 24 24 25 25 26 26 27 28 28 29 29 29 30 30 30 31 31 32 32 33 33 34 34 34 34 34 33 33 32 32 32 32 32 32
21 19 18 16 15 14 13 13 13 13 14 15 16 17 17 18 19 19 20 20 20 21 21 21 22 22 22 22 22 22 22 22 23 23 24 25 25 26 26 27 27 28 28 29 29 30 30 30 30 31 31 31 32 32 33 34 34 34 34 34 33 32 32 31 31 31 31 31 31
20 19 17 16 15 14 13 13 13 14 14 15 16 17 18 18 19 20 20 20 21 21 21 22 22 22 22 22 22 22 23 23 23 24 24 25 26 26 27 27 28 28 29 29 29 30 30 30 31 31 31 32 32 33 33 34 34 34 33 33 32 31 31 31 31 31 31 30 30
20 18 17 15 14 14 13 13 14 14 15 15 16 17 18 19 20 20 21 21 21 22 22 22 22 22 22 23 23 23 23 23 24 24 25 26 26 27 28 28 28 28 29 29 30 30 30 31 31 31 32 32 33 33 33 34 34 33 33 32 31 31 30 30 31 30 30 29 29
19 18 16 15 14 14 14 14 14 15 15 16 17 17 18 19 20 21 21 21 22 22 22 22 22 23 23 23 23 23 24 24 24 25 25 26 27 28 28 29 29 29 29 30 30 30 31 31 31 32 32 32 33 33 34 34 33 33 32 32 31 31 31 31 30 30 29 29 29
19 17 16 15 14 14 14 14 15 15 15 16 17 18 19 20 21 21 21 22 22 23 23 23 23 23 23 23 23 24 24 25 25 25 26 27 28 28 29 29 29 29 29 30 30 30 31 31 31 32 32 33 33 33 33 33 33 33 32 32 32 32 32 31 31 30 29 29 28
18 17 16 15 15 15 15 15 15 15 16 17 18 19 20 21 21 22 22 22 23 23 23 23 23 23 23 24 24 24 25 25 26 26 26 27 28 29 29 30 29 29 29 30 30 31 31 31 32 32 32 33 33 33 33 33 33 33 33 33 33 33 32 32 31 30 29 28 26
18 17 16 15 15 15 15 15 16 16 17 17 18 19 20 21 22 22 22 23 23 23 24 24 24 24 24 24 24 25 25 25 26 26 27 27 28 29 30 30 30 30 30 30 30 31 31 31 32 32 32 33 33 33 33 33 33 33 33 33 33 33 32 31 30 29 28 26 25
18 17 16 16 16 16 16 16 16 17 17 18 19 20 21 22 22 23 23 23 23 24 24 24 24 24 24 24 25 25 25 26 26 27 27 28 29 29 30 31 31 30 30 30 30 31 31 31 32 32 32 32 33 32 32 32 32 32 33 33 33 32 32 31 30 29 27 25 24
18 17 17 16 16 16 16 17 17 18 18 19 20 21 22 23 23 23 23 23 24 24 24 24 24 24 25 25 25 26 26 26 26 27 28 28 29 29 30 31 31 31 30 30 30 31 31 31 32 32 32 32 32 31 31 31 31 32 32 32 32 32 31 30 29 27 26 25 24
18 18 17 17 17 17 17 18 18 19 19 20 21 22 22 23 23 24 24 24 24 24 25 25 25 25 25 25 26 26 26 26 27 27 28 28 29 30 30 31 31 31 30 30 30 31 31 31 32 32 32 31 30 30 29 29 30 31 31 32 32 32 31 30 28 27 26 26 26
19 18 18 18 18 18 18 19 19 20 20 21 22 22 23 24 24 24 24 24 25 25 25 25 25 25 26 26 26 27 27 27 27 27 28 29 29 30 30 30 31 31 30 30 30 31 31 31 32 32 31 30 29 28 27 27 28 30 31 31 31 31 30 29 28 27 26 27 27
Wind_Direction
204 206 208 210 213 214 216 218 220 223 226 229 233 237 242 248 253 258 262 267 270 274 278 282 287 291 295 299 302 304 307 308 310 311 312 313 313 313 312 312 311 310 310 309 308 308 308 307 307 306 306 306 305 305 305 304 304 304 304 304 304 304 304 305 305 305 305 305 304
206 208 210 212 214 216 218 220 222 225 228 232 236 242 247 253 258 263 267 270 274 278 282 287 291 295 298 301 303 305 307 309 310 311 312 313 313 312 312 311 311 310 309 309 308 308 307 307 307 306 306 306 305 305 305 305 305 305 305 305 305 305 306 306 306 306 306 306 306
208 210 212 214 216 217 219 221 224 227 230 234 240 246 253 258 263 266 269 273 278 282 286 289 293 296 299 301 304 306 307 309 310 311 312 312 312 312 311 311 310 310 309 309 308 308 307 307 307 306 306 306 306 305 305 305 306 306 306 306 306 307 307 308 308 308 308 308 307
210 212 214 216 217 219 220 223 225 228 232 237 244 250 257 262 266 269 273 276 280 284 287 291 294 297 299 302 304 306 308 310 311 312 312 312 312 311 311 311 310 310 309 309 308 308 307 307 307 306 306 306 306 306 306 306 307 307 307 308 308 309 309 310 310 310 309 309 308
212 214 215 217 218 220 222 224 226 230 235 241 248 255 260 264 268 271 275 278 281 285 288 291 294 297 300 302 305 307 309 310 311 312 312 312 312 311 311 311 310 310 309 308 308 307 307 307 307 307 307 307 307 307 307 307 308 308 309 309 310 311 311 311 311 311 310 310 309
214 215 216 217 219 221 223 225 229 233 239 245 252 258 263 266 269 273 276 279 282 286 289 292 295 297 300 303 306 308 310 311 311 312 312 312 312 311 311 311 310 310 309 308 308 307 307 307 307 307 307 307 308 308 308 309 309 309 310 311 311 312 313 313 312 312 311 310 310
215 216 217 218 220 222 224 227 232 236 243 249 255 260 264 267 271 274 277 280 283 286 289 292 295 298 301 304 307 309 310 311 312 312 312 312 312 311 311 310 310 309 309 308 307 307 307 307 307 307 308 308 308 309 309 310 310 311 311 312 313 313 314 314 313 312 312 311 310
217 218 219 220 221 223 226 230 235 240 246 252 257 261 265 268 272 275 278 281 283 286 289 293 296 299 303 306 308 309 310 311 312 312 312 312 311 311 311 310 310 309 308 308 307 307 307 308 308 308 309 309 309 310 310 311 312 312 313 314 314 315 315 314 314 313 312 311 310
217 218 219 221 223 226 229 233 238 243 249 254 258 262 266 269 272 275 277 279 282 286 290 293 297 301 304 307 309 310 311 312 312 312 312 311 311 311 311 310 309 309 308 308 307 307 308 308 309 309 310 310 311 311 312 313 313 314 314 315 315 316 315 315 314 313 312 311 311
218 219 220 222 224 227 231 236 241 246 251 255 259 263 266 270 272 274 276 279 283 287 291 295 299 303 306 309 310 311 312 312 312 312 312 311 311 311 310 310 309 309 308 308 308 308 309 309 310 310 311 311 312 313 314 314 315 315 315 316 316 316 316 315 314 313 312 311 310
219 220 222 224 227 230 234 238 243 248 252 256 260 263 267 269 271 273 276 280 284 288 292 297 301 305 308 310 311 312 312 312 312 312 311 311 311 310 310 309 309 309 309 309 309 309 310 310 311 311 312 313 314 315 315 316 316 316 316 316 316 316 316 316 315 313 312 311 310
220 221 223 226 229 232 236 241 245 249 253 257 260 263 266 268 270 273 276 281 285 290 295 300 304 307 309 311 312 312 312 312 311 311 311 311 310 310 310 309 309 309 309 310 310 311 311 311 312 313 313 314 315 316 316 316 316 316 316 316 316 316 316 316 315 313 312 311 310
221 222 225 228 231 235 238 242 246 250 254 257 260 263 265 267 270 274 278 283 288 293 298 302 306 309 311 311 312 312 312 311 311 311 311 310 310 310 309 309 309 310 310 310 311 312 312 312 313 314 314 315 316 317 317 317 317 316 316 316 316 316 316 315 314 313 311 310 309
221 223 226 229 232 236 240 243 247 250 254 257 259 262 265 267 271 276 280 285 291 296 301 305 308 310 311 312 312 311 311 311 310 310 310 310 310 309 309 310 310 310 311 311 312 312 313 313 314 314 315 316 317 317 317 316 316 316 316 316 316 315 315 314 313 312 311 309 308
221 224 227 230 234 237 240 243 247 250 253 256 259 262 265 268 273 278 283 289 294 299 304 308 310 311 312 312 311 311 310 310 310 310 310 310 310 310 310 310 310 311 311 312 313 313 313 314 314 314 315 316 316 316 316 316 316 315 315 315 315 315 314 313 312 311 309 308 307
222 225 228 231 234 237 240 243 246 250 253 255 259 262 265 270 275 280 286 292 298 303 307 309 310 311 311 311 311 310 310 310 310 310 310 310 310 310 310 311 311 312 312 313 313 314 314 314 314 314 315 315 315 316 315 315 315 315 314 314 314 313 313 312 311 310 309 307 307
222 226 229 232 235 237 240 243 246 249 252 255 259 262 266 272 278 284 290 296 301 306 309 310 311 311 311 310 310 310 310 310 310 310 310 310 311 311 311 312 312 312 313 313 314 314 314 314 314 314 314 314 315 315 314 314 314 313 313 313 313 312 312 311 310 309 308 307 307
223 226 229 232 234 237 239 242 245 249 252 255 259 263 269 275 281 288 294 299 304 308 310 310 310 310 310 309 309 310 310 311 311 311 311 311 311 312 312 312 313 313 313 314 313 313 313 313 313 314 314 314 314 313 313 313 313 312 312 312 312 312 311 311 310 309 309 308 308
224 227 229 232 234 237 239 242 245 248 251 255 260 265 272 278 286 293 299 303 306 309 310 310 310 310 309 310 310 310 311 311 311 311 311 312 312 312 313 313 313 313 313 313 313 313 313 313 313 313 313 313 313 312 312 312 312 311 312 312 312 312 312 311 311 311 310 310 310
225 227 229 232 234 236 239 242 244 248 252 256 262 268 275 283 290 297 302 306 308 309 310 310 310 310 310 310 311 311 312 312 312 312 312 312 312 313 313 313 313 313 313 312 312 312 312 313 313 313 313 312 312 312 311 311 311 311 311 312 312 312 312 312 312 312 311 311 311
225 227 229 232 234 236 238 241 244 248 253 258 265 272 280 288 295 300 305 307 309 310 310 310 310 310 310 311 312 312 312 311 312 312 312 312 312 312 312 312 312 312 312 312 312 312 312 312 312 312 312 312 311 311 311 311 312 312 312 313 313 313 313 313 313 312 312 312 311
225 227 229 231 233 235 238 241 245 249 255 261 268 276 285 292 299 303 306 308 309 310 310 310 310 311 311 312 312 311 312 311 312 312 312 312 312 312 312 311 311 311 311 311 311 311 312 312 312 312 312 312 312 312 312 312 313 313 313 313 314 314 314 313 313 313 312 311 311
224 226 228 230 233 236 238 242 246 251 257 264 273 282 290 297 302 305 307 309 310 310 310 310 311 312 312 312 312 312 312 312 311 311 311 311 311 311 310 310 310 311 311 311 311 312 312 312 312 313 313 313 313 313 313 314 314 314 314 314 314 314 314 314 313 312 312 311 311
224 226 228 231 233 236 239 243 247 253 260 268 278 287 295 300 304 307 308 310 310 310 311 311 312 312 312 312 311 311 311 311 311 311 310 310 310 309 309 310 310 310 311 311 312 312 313 313 314 314 314 314 314 314 314 314 314 314 314 314 315 315 314 314 313 313 312 311 310
223 226 228 231 233 236 240 244 249 256 264 274 284 293 299 303 306 308 310 311 311 312 312 312 312 312 311 311 311 311 311 310 310 310 309 309 308 308 309 309 310 310 311 312 312 313 313 314 314 315 315 315 314 314 314 314 314 314 314 314 314 314 314 314 313 312 311 310 309
224 226 228 231 234 237 240 245 252 260 270 280 289 297 302 305 308 310 311 312 312 313 313 312 312 311 311 310 310 310 310 309 309 308 308 308 308 308 308 309 310 311 311 312 312 313 314 314 314 314 314 314 314 314 314 314 314 314 314 314 314 314 314 313 313 312 311 309 308
224 226 228 231 234 237 242 248 256 265 275 285 293 300 304 307 310 312 313 314 314 314 313 312 311 310 310 310 309 309 308 308 307 307 307 307 307 308 309 310 311 312 312 312 312 313 313 313 313 313 313 313 313 313 313 314 314 314 314 314 314 314 313 312 312 311 310 308 307
224 226 228 231 234 238 244 252 261 271 280 289 297 302 307 310 312 314 315 316 315 314 313 312 311 310 309 309 308 308 307 306 306 305 305 306 307 308 310 311 312 312 312 312 312 313 313 313 313 313 313 313 313 313 314 314 314 314 314 314 314 313 313 312 311 310 309 307 306
224 226 228 231 235 241 248 257 266 275 284 292 299 304 309 312 315 317 317 317 316 314 313 311 310 309 308 308 307 306 305 305 305 304 305 306 307 309 310 311 312 312 312 312 312 312 312 312 313 313 313 313 314 314 314 314 314 314 314 314 314 313 312 311 310 309 307 305 304
224 226 229 232 237 244 252 260 269 278 287 294 301 306 311 315 317 318 318 317 315 314 312 310 309 308 307 306 305 305 304 304 304 304 305 306 308 309 311 311 312 312 312 312 312 312 312 312 313 313 314 314 314 314 313 314 314 314 314 314 314 313 312 310 308 307 305 304 303
225 227 230 234 240 247 255 264 272 281 289 297 303 309 314 317 318 318 317 316 315 313 312 310 308 307 306 305 304 303 303 303 304 304 305 307 308 309 311 311 312 312 312 312 312 312 312 313 313 314 314 314 314 314 314 314 314 314 314 314 313 312 311 309 307 306 305 304 305
225 228 231 236 242 250 258 267 275 284 291 299 306 312 316 318 319 319 318 316 315 313 311 309 307 305 304 303 303 302 302 303 304 305 306 307 308 310 311 311 312 312 312 312 312 312 312 313 314 314 315 315 314 314 314 314 314 314 314 313 312 311 310 308 307 306 306 307 307
226 229 232 238 245 253 262 270 278 286 294 302 308 313 317 318 319 319 318 316 314 311 309 306 305 303 302 301 301 301 302 303 304 305 306 308 309 309 310 311 312 312 312 312 312 313 313 314 314 315 315 315 315 315 315 315 314 314 313 313 312 311 310 308 308 308 309 310 310
227 230 235 241 248 256 265 273 280 288 296 304 310 314 317 318 318 318 316 314 312 309 307 304 302 301 300 300 300 301 302 303 304 306 307 308 308 309 310 311 312 312 312 313 313 313 314 314 315 315 316 316 315 315 315 315 314 314 313 313 312 312 311 311 312 312 313 312 311
229 233 238 244 251 259 267 275 282 290 298 305 310 314 316 317 317 316 314 311 309 307 305 303 301 300 299 299 300 300 302 303 304 306 307 308 308 309 310 311 312 312 313 313 313 313 314 315 315 316 316 316 316 316 315 315 314 314 313 313 314 314 314 315 315 315 314 312 311
231 235 241 247 254 262 269 276 284 292 300 306 310 313 314 315 316 314 312 309 307 305 302 301 300 299 298 299 299 300 301 303 304 306 307 308 309 309 310 311 312 312 313 313 313 314 314 315 316 316 316 316 316 316 315 315 315 315 315 315 316 316 317 317 316 315 314 313 313
234 239 244 251 257 264 271 279 286 293 300 305 308 311 312 313 313 312 309 307 304 302 301 300 298 298 298 298 298 299 300 302 304 305 307 308 309 309 310 311 312 313 313 313 314 314 314 315 316 316 317 317 316 316 316 316 316 316 317 317 318 318 318 317 316 314 313 313 314
237 242 247 254 260 267 273 280 287 294 299 303 306 309 310 311 310 309 306 304 302 300 299 298 297 297 297 297 297 298 300 302 304 305 307 308 309 310 310 311 312 313 313 313 313 314 314 315 316 316 317 317 317 317 317 317 317 318 318 318 318 318 317 316 315 314 313 314 315
240 245 250 256 262 269 275 282 288 293 298 301 304 306 308 308 308 306 304 301 299 298 297 296 296 296 296 296 297 298 300 302 304 306 307 309 309 310 310 311 312 312 313 313 313 314 314 315 316 316 317 317 318 318 318 319 319 318 318 317 317 316 315 314 314 314 313 314 316
243 248 253 259 265 271 276 282 287 292 296 299 302 304 305 305 304 303 302 299 297 296 295 295 295 295 295 295 296 298 300 302 304 306 307 308 309 310 310 310 311 312 312 312 313 313 314 315 315 316 317 318 319 319 320 319 318 317 315 315 314 314 314 314 314 314 314 315 317
246 251 256 262 267 272 277 282 287 291 295 298 300 302 302 303 302 301 299 297 295 294 294 294 294 294 294 295 297 298 301 303 305 306 307 308 308 309 309 310 310 310 311 311 312 313 313 314 315 317 318 319 320 320 320 318 316 313 312 312 312 312 313 314 314 315 315 316 318
Height
1531 1533 1533 1534 1534 1535 1536 1537 1537 1538 1538 1539 1539 1540 1541 1542 1542 1542 1542 1542 1542 1542 1541 1541 1541 1540 1539 1539 1538 1538 1538 1537 1537 1536 1536 1535 1534 1533 1532 1531 1530 1529 1528 1527 1526 1525 1524 1523 1522 1521 1520 1518 1518 1517 1516 1515 1514 1513 1512 1512 1511 1510 1509 1508 1508 1507 1506 1505 1504
1530 1531 1532 1533 1533 1534 1534 1535 1536 1537 1537 1538 1539 1539 1540 1540 1541 1541 1541 1541 1541 1541 1540 1540 1539 1538 1538 1538 1537 1537 1536 1536 1535 1535 1534 1533 1533 1532 1531 1530 1529 1528 1527 1525 1524 1523 1522 1521 1520 1519 1518 1517 1516 1515 1514 1513 1512 1512 1511 1510 1509 1508 1508 1507 1506 1505 1504 1503 1503
1529 1530 1531 1531 1532 1533 1533 1534 1535 1536 1536 1537 1538 1538 1539 1539 1539 1540 1540 1540 1539 1539 1539 1538 1538 1537 1537 1536 1536 1535 1535 1535 1534 1533 1533 1532 1531 1530 1529 1528 1527 1526 1525 1524 1523 1522 1520 1519 1518 1517 1516 1515 1514 1513 1513 1512 1511 1510 1509 1508 1508 1507 1506 1505 1504 1503 1503 1502 1501
1528 1529 1529 1530 1531 1532 1532 1533 1534 1535 1536 1536 1537 1537 1538 1538 1538 1538 1538 1538 1538 1538 1538 1537 1537 1536 1535 1535 1534 1534 1533 1533 1533 1532 1531 1530 1529 1528 1528 1527 1525 1524 1523 1522 1521 1520 1519 1518 1517 1516 1514 1513 1513 1512 1511 1510 1509 1508 1508 1507 1506 1505 1504 1503 1503 1502 1501 1500 1499
1527 1528 1528 1529 1530 1531 1532 1533 1533 1534 1535 1535 1536 1536 1536 1537 1537 1537 1537 1537 1537 1537 1536 1536 1535 1535 1534 1534 1533 1533 1532 1532 1531 1530 1530 1529 1528 1527 1526 1525 1524 1523 1522 1520 1519 1518 1517 1516 1515 1514 1513 1512 1511 1510 1509 1508 1507 1507 1506 1505 1504 1503 1503 1502 1501 1500 1499 1498 1498
1526 1527 1527 1528 1529 1530 1531 1532 1532 1533 1533 1534 1534 1535 1535 1535 1536 1536 1536 1536 1535 1535 1535 1534 1534 1533 1533 1532 1532 1531 1531 1530 1529 1529 1528 1527 1526 1525 1524 1523 1522 1521 1520 1519 1518 1516 1515 1514 1513 1512 1511 1510 1509 1508 1508 1507 1506 1505 1504 1503 1503 1502 1501 1500 1499 1498 1498 1497 1496
1525 1525 1526 1527 1528 1529 1530 1530 1531 1532 1532 1533 1533 1533 1534 1534 1534 1534 1534 1534 1534 1534 1533 1533 1533 1532 1532 1531 1530 1530 1529 1529 1528 1527 1526 1526 1525 1523 1523 1522 1520 1519 1518 1517 1516 1515 1513 1513 1512 1511 1510 1509 1508 1507 1506 1505 1504 1503 1503 1502 1501 1501 1500 1499 1498 1497 1496 1495 1494
1524 1525 1526 1527 1527 1528 1529 1529 1530 1531 1531 1531 1532 1532 1533 1533 1533 1533 1533 1533 1533 1533 1532 1532 1531 1531 1530 1530 1529 1528 1528 1527 1527 1526 1525 1524 1523 1522 1521 1520 1519 1518 1516 1515 1514 1513 1512 1511 1510 1509 1508 1507 1506 1505 1504 1503 1503 1502 1501 1500 1499 1499 1498 1497 1496 1495 1494 1493 1492
1523 1524 1525 1526 1527 1527 1528 1528 1529 1529 1530 1530 1530 1531 1531 1532 1532 1532 1532 1532 1531 1531 1531 1530 1530 1529 1528 1528 1528 1527 1526 1526 1525 1524 1523 1522 1521 1520 1519 1518 1517 1516 1515 1513 1513 1511 1510 1509 1508 1508 1506 1505 1505 1504 1503 1502 1501 1500 1499 1499 1498 1497 1497 1496 1495 1494 1493 1492 1491
1522 1523 1524 1525 1525 1526 1527 1527 1528 1528 1528 1529 1529 1529 1530 1530 1530 1531 1530 1530 1530 1530 1529 1529 1528 1528 1527 1527 1526 1525 1524 1524 1523 1522 1521 1520 1519 1518 1517 1516 1515 1514 1513 1512 1511 1510 1509 1508 1507 1506 1505 1504 1503 1502 1501 1501 1500 1499 1498 1497 1496 1496 1495 1494 1493 1492 1491 1490 1489
1521 1522 1523 1524 1524 1525 1525 1526 1526 1527 1527 1528 1528 1528 1528 1529 1529 1529 1529 1529 1529 1528 1528 1527 1527 1526 1525 1525 1524 1523 1523 1522 1521 1520 1519 1518 1517 1516 1515 1514 1513 1512 1511 1510 1509 1508 1507 1506 1505 1504 1503 1503 1502 1501 1500 1499 1498 1497 1496 1496 1495 1494 1493 1493 1492 1491 1489 1488 1487
1520 1521 1522 1523 1523 1523 1524 1524 1525 1525 1526 1526 1527 1527 1527 1528 1528 1528 1528 1528 1528 1527 1526 1526 1525 1524 1524 1523 1523 1522 1521 1520 1519 1518 1518 1516 1515 1514 1513 1513 1511 1510 1509 1508 1507 1506 1505 1504 1503 1502 1502 1501 1500 1499 1498 1497 1496 1496 1495 1494 1493 1492 1492 1491 1490 1489 1488 1487 1486
1519 1520 1521 1521 1522 1522 1523 1523 1523 1524 1524 1525 1525 1526 1526 1526 1527 1527 1527 1526 1526 1525 1525 1524 1523 1523 1522 1521 1521 1520 1519 1518 1518 1517 1516 1515 1513 1513 1512 1511 1510 1509 1508 1507 1506 1505 1503 1503 1502 1501 1500 1499 1498 1498 1497 1496 1495 1494 1493 1492 1491 1491 1490 1489 1488 1487 1486 1485 1484
1518 1519 1519 1520 1520 1521 1521 1522 1522 1523 1523 1523 1524 1524 1525 1525 1525 1525 1525 1525 1524 1524 1523 1523 1522 1521 1520 1520 1519 1518 1518 1517 1516 1515 1514 1513 1512 1511 1510 1509 1508 1507 1506 1505 1504 1503 1502 1501 1500 1499 1498 1498 1497 1496 1495 1494 1493 1493 1492 1491 1490 1489 1488 1487 1486 1485 1484 1483 1482
1517 1518 1518 1518 1519 1519 1520 1520 1521 1521 1522 1522 1523 1523 1523 1523 1524 1524 1523 1523 1523 1522 1522 1521 1520 1519 1518 1518 1517 1517 1516 1515 1514 1513 1512 1511 1510 1509 1508 1508 1506 1505 1504 1503 1503 1502 1501 1500 1498 1498 1497 1496 1495 1494 1494 1493 1492 1491 1490 1489 1488 1487 1486 1485 1485 1483 1483 1481 1480
1515 1516 1517 1517 1518 1518 1518 1519 1519 1520 1520 1521 1521 1522 1522 1522 1522 1522 1522 1522 1521 1521 1520 1519 1519 1518 1517 1516 1515 1515 1514 1513 1512 1511 1510 1509 1508 1508 1507 1506 1505 1504 1503 1502 1501 1500 1499 1498 1497 1496 1495 1494 1493 1493 1492 1491 1490 1489 1488 1488 1487 1486 1485 1484 1483 1482 1481 1480 1478
1514 1515 1515 1516 1516 1517 1517 1518 1518 1519 1519 1520 1520 1520 1521 1521 1521 1520 1520 1520 1519 1519 1518 1518 1517 1516 1516 1515 1514 1513 1512 1511 1510 1509 1508 1508 1507 1506 1505 1504 1503 1502 1501 1500 1499 1498 1498 1497 1496 1495 1494 1493 1492 1491 1490 1490 1489 1488 1487 1486 1485 1484 1483 1482 1481 1480 1479 1478 1477
1513 1513 1514 1514 1515 1516 1516 1517 1517 1518 1518 1518 1518 1519 1519 1519 1519 1519 1518 1518 1518 1517 1517 1516 1515 1515 1514 1513 1512 1511 1510 1509 1508 1508 1507 1506 1505 1504 1503 1503 1502 1501 1500 1499 1498 1497 1496 1495 1494 1493 1493 1492 1491 1490 1489 1488 1487 1486 1485 1485 1484 1483 1482 1481 1479 1478 1477 1476 1475
1511 1512 1513 1513 1514 1514 1515 1515 1516 1516 1517 1517 1517 1518 1518 1518 1517 1517 1517 1516 1516 1516 1515 1514 1514 1513 1512 1511 1510 1509 1508 1508 1507 1506 1505 1504 1503 1503 1502 1501 1500 1499 1498 1497 1496 1495 1494 1494 1493 1492 1491 1490 1489 1488 1487 1486 1485 1484 1484 1483 1482 1481 1480 1479 1478 1476 1475 1474 1473
1510 1510 1511 1512 1512 1513 1513 1514 1514 1515 1515 1516 1516 1516 1516 1516 1516 1515 1515 1515 1514 1514 1513 1513 1512 1511 1510 1509 1508 1508 1507 1506 1505 1504 1503 1503 1502 1501 1500 1499 1498 1498 1497 1496 1495 1494 1493 1492 1491 1490 1489 1488 1488 1487 1486 1485 1484 1483 1482 1481 1480 1479 1478 1477 1476 1474 1473 1472 1471
1508 1509 1510 1510 1511 1512 1512 1513 1513 1514 1514 1514 1514 1514 1514 1514 1514 1514 1513 1513 1513 1512 1512 1511 1510 1509 1508 1508 1507 1506 1505 1504 1503 1503 1502 1501 1500 1499 1498 1498 1497 1496 1495 1494 1493 1493 1492 1491 1490 1489 1488 1487 1486 1485 1484 1483 1482 1481 1480 1479 1478 1477 1476 1475 1473 1472 1471 1470 1468
1507 1508 1508 1509 1510 1510 1511 1512 1512 1512 1513 1513 1513 1513 1513 1513 1513 1512 1512 1511 1511 1510 1510 1509 1508 1508 1507 1506 1505 1504 1504 1503 1502 1501 1500 1499 1499 1498 1497 1496 1495 1495 1494 1493 1492 1491 1490 1489 1488 1487 1486 1485 1484 1483 1482 1480 1479 1478 1477 1476 1475 1474 1473 1473 1471 1470 1469 1468 1467
1505 1506 1507 1508 1508 1509 1510 1510 1511 1511 1511 1511 1511 1511 1511 1511 1511 1511 1510 1510 1509 1509 1508 1507 1506 1506 1505 1504 1503 1503 1502 1501 1501 1500 1499 1498 1497 1497 1496 1495 1494 1493 1492 1491 1490 1489 1488 1487 1486 1485 1484 1483 1481 1480 1479 1478 1477 1476 1475 1474 1473 1472 1471 1470 1469 1468 1467 1466 1464
1504 1505 1506 1507 1507 1508 1508 1509 1509 1509 1510 1510 1510 1510 1510 1509 1509 1509 1509 1508 1508 1507 1506 1505 1505 1504 1503 1502 1502 1501 1500 1499 1499 1498 1498 1497 1496 1495 1494 1493 1493 1492 1491 1490 1488 1488 1486 1485 1484 1483 1482 1480 1479 1478 1477 1476 1475 1474 1473 1472 1470 1469 1469 1468 1467 1466 1465 1463 1462
1503 1504 1505 1505 1506 1507 1507 1508 1508 1508 1508 1508 1508 1508 1508 1508 1508 1508 1507 1507 1506 1505 1504 1503 1503 1502 1502 1501 1500 1499 1498 1498 1497 1496 1496 1495 1495 1494 1493 1492 1491 1490 1489 1488 1487 1486 1485 1483 1482 1481 1480 1478 1477 1476 1475 1474 1473 1472 1471 1469 1468 1467 1466 1465 1464 1463 1463 1461 1460
1502 1503 1503 1504 1505 1505 1506 1506 1506 1507 1507 1507 1507 1507 1507 1507 1506 1506 1506 1505 1504 1503 1503 1502 1501 1501 1500 1499 1498 1498 1497 1496 1495 1495 1494 1493 1493 1492 1492 1491 1490 1488 1488 1487 1485 1484 1483 1482 1481 1480 1478 1477 1476 1474 1473 1472 1471 1470 1469 1468 1466 1465 1464 1463 1462 1461 1460 1459 1458
1501 1501 1502 1503 1503 1504 1504 1505 1505 1505 1505 1505 1505 1505 1505 1505 1505 1504 1504 1503 1503 1502 1501 1500 1500 1499 1498 1498 1497 1496 1495 1495 1494 1493 1493 1492 1491 1490 1490 1489 1488 1487 1486 1485 1484 1483 1482 1481 1480 1478 1477 1475 1474 1473 1471 1470 1469 1468 1467 1465 1464 1463 1462 1460 1459 1458 1457 1456 1455
1499 1500 1501 1502 1502 1503 1503 1503 1503 1504 1504 1504 1504 1504 1504 1503 1503 1503 1502 1501 1501 1500 1499 1499 1498 1497 1497 1496 1495 1495 1494 1493 1493 1492 1491 1490 1489 1488 1488 1487 1486 1485 1484 1483 1482 1481 1480 1479 1478 1477 1476 1474 1472 1471 1469 1468 1467 1466 1464 1463 1462 1461 1459 1458 1457 1455 1454 1453 1452
1498 1499 1499 1500 1501 1501 1502 1502 1502 1503 1503 1503 1503 1503 1502 1502 1501 1501 1500 1499 1499 1498 1498 1497 1496 1496 1495 1494 1494 1493 1493 1492 1491 1490 1489 1488 1488 1487 1486 1485 1484 1483 1483 1482 1480 1479 1478 1478 1476 1475 1474 1472 1470 1469 1468 1466 1465 1463 1462 1461 1460 1459 1458 1456 1455 1453 1452 1451 1450
1497 1498 1498 1499 1499 1500 1500 1500 1501 1501 1501 1501 1501 1501 1501 1500 1499 1499 1498 1498 1497 1497 1496 1495 1495 1494 1493 1493 1492 1491 1491 1490 1489 1488 1488 1487 1486 1485 1484 1483 1483 1482 1481 1480 1479 1478 1477 1476 1474 1473 1472 1470 1469 1467 1465 1464 1463 1461 1460 1459 1458 1457 1455 1454 1453 1451 1450 1449 1448
1496 1496 1497 1498 1498 1498 1499 1499 1499 1499 1500 1500 1499 1499 1499 1498 1498 1497 1496 1496 1495 1495 1494 1493 1493 1492 1492 1491 1490 1490 1489 1488 1488 1487 1486 1485 1484 1483 1482 1482 1481 1480 1479 1478 1477 1476 1475 1473 1472 1471 1470 1468 1467 1465 1463 1462 1461 1459 1458 1457 1456 1454 1453 1452 1451 1449 1448 1447 1445
1494 1495 1496 1496 1497 1497 1497 1498 1498 1498 1498 1498 1498 1498 1497 1497 1496 1495 1495 1494 1493 1493 1492 1492 1491 1491 1490 1489 1489 1488 1487 1487 1486 1485 1484 1483 1482 1481 1480 1480 1479 1478 1477 1476 1475 1474 1473 1472 1470 1469 1468 1466 1464 1463 1461 1460 1459 1457 1456 1455 1454 1453 1451 1450 1448 1447 1446 1445 1443
1493 1494 1494 1495 1495 1496 1496 1496 1496 1497 1497 1496 1496 1496 1495 1495 1494 1493 1493 1492 1492 1491 1491 1490 1489 1489 1488 1488 1487 1486 1486 1485 1484 1483 1482 1481 1480 1479 1478 1478 1477 1476 1475 1474 1473 1472 1471 1469 1468 1467 1465 1464 1462 1461 1459 1458 1457 1455 1454 1453 1452 1451 1449 1448 1447 1445 1444 1443 1441
1492 1493 1493 1494 1494 1494 1495 1495 1495 1495 1495 1495 1494 1494 1493 1493 1492 1492 1491 1490 1490 1489 1489 1488 1488 1487 1486 1486 1485 1484 1484 1483 1482 1481 1481 1479 1478 1478 1477 1476 1475 1474 1473 1472 1471 1470 1468 1467 1466 1464 1463 1462 1460 1458 1457 1456 1454 1453 1452 1451 1450 1448 1447 1446 1444 1443 1442 1440 1439
1491 1491 1492 1492 1493 1493 1493 1493 1493 1493 1493 1493 1493 1492 1492 1491 1491 1490 1489 1489 1488 1488 1487 1486 1486 1485 1484 1484 1483 1483 1482 1481 1480 1480 1479 1478 1477 1476 1475 1474 1473 1473 1472 1470 1469 1468 1466 1465 1464 1463 1461 1459 1458 1456 1455 1453 1452 1451 1450 1448 1447 1446 1445 1443 1442 1441 1439 1438 1437
1489 1490 1490 1491 1491 1492 1492 1492 1492 1492 1491 1491 1491 1490 1490 1489 1489 1488 1488 1487 1487 1486 1485 1485 1484 1483 1483 1482 1481 1481 1480 1479 1478 1478 1477 1476 1475 1474 1473 1472 1471 1471 1470 1468 1467 1465 1464 1463 1462 1460 1459 1457 1456 1454 1453 1451 1450 1448 1447 1446 1445 1443 1442 1441 1440 1438 1437 1436 1435
1488 1488 1489 1489 1490 1490 1490 1490 1490 1490 1489 1489 1489 1489 1488 1488 1487 1487 1486 1485 1485 1484 1483 1483 1482 1481 1481 1480 1479 1479 1478 1477 1477 1476 1475 1474 1473 1472 1470 1469 1469 1468 1468 1466 1465 1463 1462 1461 1460 1458 1457 1455 1453 1452 1451 1449 1448 1446 1445 1443 1442 1441 1440 1439 1438 1436 1435 1434 1433
1487 1487 1488 1488 1488 1488 1488 1488 1488 1488 1488 1488 1487 1487 1487 1486 1486 1485 1484 1483 1483 1482 1481 1481 1480 1479 1479 1478 1478 1477 1476 1476 1475 1474 1473 1472 1471 1470 1468 1467 1467 1466 1465 1464 1463 1461 1460 1459 1458 1456 1455 1453 1451 1450 1448 1447 1445 1444 1443 1441 1440 1439 1438 1437 1435 1434 1433 1433 1432
1485 1486 1486 1486 1487 1487 1487 1486 1486 1486 1486 1486 1486 1485 1485 1484 1484 1483 1483 1482 1481 1480 1479 1479 1478 1478 1477 1476 1475 1475 1474 1474 1473 1472 1471 1470 1469 1468 1467 1465 1464 1464 1463 1462 1461 1459 1458 1457 1456 1454 1453 1451 1449 1448 1446 1444 1443 1442 1440 1439 1438 1437 1435 1434 1433 1432 1431 1430 1430
1484 1484 1484 1485 1485 1485 1485 1485 1485 1485 1484 1484 1484 1483 1483 1483 1482 1481 1480 1480 1479 1478 1477 1477 1476 1476 1475 1474 1473 1473 1472 1472 1471 1470 1469 1468 1467 1466 1465 1463 1462 1462 1461 1460 1459 1457 1456 1455 1454 1453 1451 1449 1447 1446 1444 1443 1441 1440 1438 1437 1436 1434 1433 1432 1431 1430 1429 1428 1428
1482 1483 1483 1483 1483 1483 1483 1483 1483 1483 1483 1483 1482 1482 1481 1481 1480 1479 1478 1478 1477 1476 1475 1475 1474 1473 1473 1472 1471 1471 1470 1469 1469 1468 1468 1466 1465 1464 1463 1462 1461 1459 1459 1458 1457 1455 1454 1453 1452 1450 1449 1447 1446 1444 1443 1441 1440 1438 1437 1435 1434 1433 1431 1430 1429 1428 1427 1426 1425